This is the latest recevied weather packets stored in our database for station/object N3EG. If no packets are shown the sender has not sent any weather packets the latest 10 day(s).
| Time | Temp. | Humidity | Pressure | Rain* | Wind** | Luminosity | Snow |
|---|---|---|---|---|---|---|---|
| 1777763102 | 24.44° C | 63% | 1012.5 hPa | 0 mm | - | - | - |
| 1777762803 | 24.44° C | 63% | 1012.6 hPa | 0 mm | - | - | - |
| 1777762503 | 24.44° C | 63% | 1012.8 hPa | 0 mm | - | - | - |
| 1777762202 | 24.44° C | 63% | 1012.8 hPa | 0 mm | - | - | - |
| 1777761903 | 23.89° C | 64% | 1012.9 hPa | 0 mm | - | - | - |
| 1777761603 | 23.33° C | 65% | 1012.9 hPa | 0 mm | - | - | - |
| 1777761003 | 22.78° C | 67% | 1013.1 hPa | 0 mm | - | - | - |
| 1777760703 | 22.22° C | 67% | 1013.2 hPa | 0 mm | - | - | - |
| 1777760402 | 22.22° C | 71% | 1013.3 hPa | 0 mm | - | - | - |
| 1777760103 | 21.67° C | 70% | 1013.3 hPa | 0 mm | - | - | - |
| 1777759803 | 21.67° C | 72% | 1013.5 hPa | 0 mm | - | - | - |
| 1777759502 | 21.11° C | 71% | 1013.5 hPa | 0 mm | - | - | - |
| 1777759203 | 20.56° C | 72% | 1013.5 hPa | 0 mm | - | - | - |
| 1777758903 | 20° C | 74% | 1013.6 hPa | 0 mm | - | - | - |
| 1777758602 | 20° C | 72% | 1013.7 hPa | 0 mm | - | - | - |
| 1777758303 | 19.44° C | 73% | 1013.7 hPa | 0 mm | - | - | - |
| 1777758003 | 20° C | 73% | 1013.7 hPa | 0 mm | - | - | - |
| 1777757702 | 20.56° C | 70% | 1013.7 hPa | 0 mm | - | - | - |
| 1777757403 | 20.56° C | 70% | 1013.9 hPa | 0 mm | - | - | - |
| 1777757103 | 21.11° C | 69% | 1013.9 hPa | 0 mm | - | - | - |
| 1777756802 | 21.11° C | 70% | 1014 hPa | 0 mm | - | - | - |
| 1777756503 | 21.11° C | 69% | 1014 hPa | 0 mm | - | - | - |
| 1777756203 | 21.11° C | 71% | 1014.2 hPa | 0 mm | - | - | - |
| 1777755903 | 20.56° C | 71% | 1014.3 hPa | 0 mm | - | - | - |
| 1777755603 | 20.56° C | 69% | 1014.4 hPa | 0 mm | - | - | - |
* Rain latest hour (hover to see other rain measurements)
** Current wind speed in m/s (hover to see current wind gust speed)